Time,TemperatureF,DewpointF,PressureIn,WindDirection,WindDirectionDegrees,WindSpeedMPH,WindSpeedGustMPH,Humidity,HourlyPrecipIn,Conditions,Clouds,dailyrainin,SoftwareType,DateUTC
2013-01-13 00:11:00,5.0,2.0,25.78,NW,314,1.0,4.0,87,0.00,,,0.00,weatherlink.com 1.10,2013-01-13 07:11:00,
2013-01-13 00:26:00,4.8,2.0,25.78,North,355,1.0,3.0,87,0.00,,,0.00,weatherlink.com 1.10,2013-01-13 07:26:00,
2013-01-13 00:41:00,5.0,2.0,25.78,NNE,12,1.0,3.0,87,0.00,,,0.00,weatherlink.com 1.10,2013-01-13 07:41:00,
2013-01-13 00:56:00,5.8,3.0,25.78,NNW,327,1.0,5.0,87,0.00,,,0.00,weatherlink.com 1.10,2013-01-13 07:56:00,
2013-01-13 01:11:00,5.9,3.0,25.79,North,4,3.0,4.0,86,0.00,,,0.00,weatherlink.com 1.10,2013-01-13 08:11:00,
2013-01-13 01:26:00,5.2,2.0,25.79,NW,321,2.0,4.0,86,0.00,,,0.00,weatherlink.com 1.10,2013-01-13 08:26:00,
2013-01-13 01:41:00,4.9,2.0,25.79,NW,308,1.0,3.0,87,0.00,,,0.00,weatherlink.com 1.10,2013-01-13 08:41:00,
2013-01-13 01:56:00,4.9,2.0,25.80,WNW,302,1.0,2.0,87,0.00,,,0.00,weatherlink.com 1.10,2013-01-13 08:56:00,
2013-01-13 02:11:00,5.1,2.0,25.80,WNW,293,2.0,3.0,86,0.00,,,0.00,weatherlink.com 1.10,2013-01-13 09:11:00,
2013-01-13 02:26:00,5.0,2.0,25.79,NW,318,2.0,3.0,86,0.00,,,0.00,weatherlink.com 1.10,2013-01-13 09:26:00,
2013-01-13 02:41:00,5.3,2.0,25.79,NW,308,2.0,5.0,87,0.00,,,0.00,weatherlink.com 1.10,2013-01-13 09:41:00,
2013-01-13 02:56:00,5.5,3.0,25.79,NW,315,4.0,5.0,87,0.00,,,0.00,weatherlink.com 1.10,2013-01-13 09:56:00,
2013-01-13 03:11:00,6.1,3.0,25.78,NW,318,4.0,6.0,86,0.00,,,0.00,weatherlink.com 1.10,2013-01-13 10:11:00,
2013-01-13 03:26:00,6.1,3.0,25.78,WNW,293,2.0,6.0,86,0.00,,,0.00,weatherlink.com 1.10,2013-01-13 10:26:00,
2013-01-13 03:41:00,6.2,3.0,25.77,NNE,12,3.0,5.0,86,0.00,,,0.00,weatherlink.com 1.10,2013-01-13 10:41:00,
2013-01-13 03:56:00,6.3,3.0,25.77,NNW,338,2.0,5.0,86,0.00,,,0.00,weatherlink.com 1.10,2013-01-13 10:56:00,
2013-01-13 04:11:00,6.3,3.0,25.77,NNW,330,1.0,5.0,86,0.00,,,0.00,weatherlink.com 1.10,2013-01-13 11:11:00,
2013-01-13 04:26:00,6.0,3.0,25.77,NNW,334,2.0,5.0,85,0.00,,,0.00,weatherlink.com 1.10,2013-01-13 11:26:00,
2013-01-13 04:41:00,5.6,2.0,25.77,NW,319,3.0,4.0,85,0.00,,,0.00,weatherlink.com 1.10,2013-01-13 11:41:00,
2013-01-13 04:56:00,4.9,1.0,25.77,NW,306,3.0,5.0,85,0.00,,,0.00,weatherlink.com 1.10,2013-01-13 11:56:00,
2013-01-13 05:11:00,4.1,1.0,25.78,NW,308,3.0,5.0,85,0.00,,,0.00,weatherlink.com 1.10,2013-01-13 12:11:00,
2013-01-13 05:26:00,3.3,0.0,25.78,WNW,302,4.0,5.0,85,0.00,,,0.00,weatherlink.com 1.10,2013-01-13 12:26:00,
2013-01-13 05:41:00,2.4,-1.0,25.78,WNW,302,2.0,5.0,85,0.00,,,0.00,weatherlink.com 1.10,2013-01-13 12:41:00,
2013-01-13 05:56:00,1.6,-2.0,25.78,NW,312,2.0,4.0,85,0.00,,,0.00,weatherlink.com 1.10,2013-01-13 12:56:00,
2013-01-13 06:12:00,0.4,-3.0,25.78,NW,304,2.0,4.0,84,0.00,,,0.00,weatherlink.com 1.10,2013-01-13 13:12:00,
2013-01-13 06:27:00,-0.1,-4.0,25.79,NW,315,3.0,5.0,85,0.00,,,0.00,weatherlink.com 1.10,2013-01-13 13:27:00,
2013-01-13 06:42:00,-0.5,-4.0,25.80,WNW,299,3.0,5.0,85,0.00,,,0.00,weatherlink.com 1.10,2013-01-13 13:42:00,
2013-01-13 06:57:00,-0.8,-4.0,25.80,WNW,301,3.0,4.0,85,0.00,,,0.00,weatherlink.com 1.10,2013-01-13 13:57:00,
2013-01-13 07:12:00,-1.0,-4.0,25.80,NW,314,5.0,5.0,85,0.00,,,0.00,weatherlink.com 1.10,2013-01-13 14:12:00,
2013-01-13 07:27:00,-1.1,-5.0,25.81,NW,317,3.0,6.0,85,0.00,,,0.00,weatherlink.com 1.10,2013-01-13 14:27:00,
2013-01-13 07:42:00,-0.8,-4.0,25.82,WNW,298,4.0,6.0,86,0.00,,,0.00,weatherlink.com 1.10,2013-01-13 14:42:00,
2013-01-13 07:57:00,0.0,-3.0,25.82,NNW,328,2.0,6.0,86,0.00,,,0.00,weatherlink.com 1.10,2013-01-13 14:57:00,
2013-01-13 08:12:00,0.8,-3.0,25.83,WNW,290,3.0,5.0,84,0.00,,,0.00,weatherlink.com 1.10,2013-01-13 15:12:00,
2013-01-13 08:27:00,1.3,-2.0,25.83,WNW,301,3.0,5.0,85,0.00,,,0.00,weatherlink.com 1.10,2013-01-13 15:27:00,
2013-01-13 08:42:00,2.1,-1.0,25.83,WNW,289,2.0,6.0,85,0.00,,,0.00,weatherlink.com 1.10,2013-01-13 15:42:00,
2013-01-13 08:57:00,2.9,-1.0,25.84,WNW,299,3.0,6.0,84,0.00,,,0.00,weatherlink.com 1.10,2013-01-13 15:57:00,
2013-01-13 09:12:00,3.7,0.0,25.84,NW,308,2.0,7.0,84,0.00,,,0.00,weatherlink.com 1.10,2013-01-13 16:12:00,
2013-01-13 09:27:00,5.0,1.0,25.84,NW,314,4.0,7.0,84,0.00,,,0.00,weatherlink.com 1.10,2013-01-13 16:27:00,
2013-01-13 09:43:00,6.5,2.0,25.83,WNW,293,4.0,8.0,83,0.00,,,0.00,weatherlink.com 1.10,2013-01-13 16:43:00,
2013-01-13 09:58:00,7.3,3.0,25.84,NW,307,4.0,8.0,82,0.00,,,0.00,weatherlink.com 1.10,2013-01-13 16:58:00,
2013-01-13 10:13:00,7.6,3.0,25.84,NW,308,6.0,10.0,82,0.00,,,0.00,weatherlink.com 1.10,2013-01-13 17:13:00,
2013-01-13 10:28:00,8.6,5.0,25.83,WNW,300,3.0,7.0,83,0.00,,,0.00,weatherlink.com 1.10,2013-01-13 17:28:00,
2013-01-13 10:43:00,10.6,6.0,25.83,WNW,287,5.0,9.0,81,0.00,,,0.00,weatherlink.com 1.10,2013-01-13 17:43:00,
2013-01-13 10:58:00,11.3,6.0,25.82,NW,321,4.0,8.0,79,0.00,,,0.00,weatherlink.com 1.10,2013-01-13 17:58:00,
2013-01-13 11:13:00,11.6,6.0,25.82,NW,307,7.0,9.0,77,0.00,,,0.00,weatherlink.com 1.10,2013-01-13 18:13:00,
2013-01-13 11:28:00,10.9,5.0,25.82,WNW,296,9.0,13.0,78,0.00,,,0.00,weatherlink.com 1.10,2013-01-13 18:28:00,
2013-01-13 11:43:00,11.8,6.0,25.81,NW,325,6.0,10.0,78,0.00,,,0.00,weatherlink.com 1.10,2013-01-13 18:43:00,
2013-01-13 11:58:00,12.3,6.0,25.80,North,351,6.0,9.0,76,0.00,,,0.00,weatherlink.com 1.10,2013-01-13 18:58:00,
2013-01-13 12:13:00,12.6,7.0,25.80,WNW,288,5.0,9.0,77,0.00,,,0.00,weatherlink.com 1.10,2013-01-13 19:13:00,
2013-01-13 12:28:00,12.9,7.0,25.80,WNW,301,6.0,10.0,77,0.00,,,0.00,weatherlink.com 1.10,2013-01-13 19:28:00,
2013-01-13 12:43:00,13.3,6.0,25.80,NW,304,3.0,13.0,74,0.00,,,0.00,weatherlink.com 1.10,2013-01-13 19:43:00,
2013-01-13 12:59:00,14.2,7.0,25.80,NNW,338,5.0,10.0,74,0.00,,,0.00,weatherlink.com 1.10,2013-01-13 19:59:00,
2013-01-13 13:14:00,14.3,6.0,25.80,NW,322,5.0,12.0,70,0.00,,,0.00,weatherlink.com 1.10,2013-01-13 20:14:00,
2013-01-13 13:29:00,13.4,5.0,25.80,North,355,7.0,11.0,70,0.00,,,0.00,weatherlink.com 1.10,2013-01-13 20:29:00,
2013-01-13 13:44:00,14.1,6.0,25.81,WNW,302,4.0,11.0,70,0.00,,,0.00,weatherlink.com 1.10,2013-01-13 20:44:00,
2013-01-13 13:59:00,15.7,7.0,25.81,WNW,287,9.0,11.0,67,0.00,,,0.00,weatherlink.com 1.10,2013-01-13 20:59:00,
2013-01-13 14:14:00,14.1,6.0,25.82,WNW,284,3.0,9.0,70,0.00,,,0.00,weatherlink.com 1.10,2013-01-13 21:14:00,
2013-01-13 14:29:00,13.1,5.0,25.82,NW,317,4.0,11.0,71,0.00,,,0.00,weatherlink.com 1.10,2013-01-13 21:29:00,
2013-01-13 14:44:00,12.7,5.0,25.83,NNE,12,6.0,10.0,71,0.00,,,0.00,weatherlink.com 1.10,2013-01-13 21:44:00,
2013-01-13 14:59:00,12.7,5.0,25.83,NNE,23,4.0,9.0,71,0.00,,,0.00,weatherlink.com 1.10,2013-01-13 21:59:00,
2013-01-13 15:14:00,12.7,4.0,25.83,NNW,338,6.0,8.0,69,0.00,,,0.00,weatherlink.com 1.10,2013-01-13 22:14:00,
2013-01-13 15:29:00,12.6,5.0,25.84,NNE,18,8.0,9.0,72,0.00,,,0.00,weatherlink.com 1.10,2013-01-13 22:29:00,
2013-01-13 15:44:00,12.8,5.0,25.84,North,354,5.0,8.0,71,0.00,,,0.00,weatherlink.com 1.10,2013-01-13 22:44:00,
2013-01-13 15:59:00,13.2,5.0,25.84,NE,39,4.0,9.0,70,0.00,,,0.00,weatherlink.com 1.10,2013-01-13 22:59:00,
2013-01-13 16:15:00,12.7,4.0,25.84,NW,315,2.0,8.0,68,0.00,,,0.00,weatherlink.com 1.10,2013-01-13 23:15:00,
2013-01-13 16:30:00,10.3,3.0,25.84,NW,304,3.0,5.0,71,0.00,,,0.00,weatherlink.com 1.10,2013-01-13 23:30:00,
2013-01-13 16:45:00,8.6,2.0,25.84,NW,317,4.0,6.0,73,0.00,,,0.00,weatherlink.com 1.10,2013-01-13 23:45:00,
2013-01-13 17:00:00,7.9,2.0,25.84,WNW,302,4.0,8.0,75,0.00,,,0.00,weatherlink.com 1.10,2013-01-14 00:00:00,
2013-01-13 17:15:00,5.9,0.0,25.85,WNW,300,4.0,8.0,75,0.00,,,0.00,weatherlink.com 1.10,2013-01-14 00:15:00,
2013-01-13 17:30:00,6.4,0.0,25.85,WNW,302,7.0,10.0,76,0.00,,,0.00,weatherlink.com 1.10,2013-01-14 00:30:00,
2013-01-13 17:45:00,5.5,0.0,25.85,NW,307,8.0,12.0,77,0.00,,,0.00,weatherlink.com 1.10,2013-01-14 00:45:00,
2013-01-13 18:00:00,5.1,-1.0,25.85,NW,310,4.0,8.0,77,0.00,,,0.00,weatherlink.com 1.10,2013-01-14 01:00:00,
2013-01-13 18:15:00,4.7,-1.0,25.85,WNW,302,2.0,5.0,78,0.00,,,0.00,weatherlink.com 1.10,2013-01-14 01:15:00,
2013-01-13 18:30:00,3.9,-2.0,25.85,West,281,2.0,4.0,78,0.00,,,0.00,weatherlink.com 1.10,2013-01-14 01:30:00,
2013-01-13 18:45:00,2.1,-3.0,25.85,WNW,287,4.0,6.0,80,0.00,,,0.00,weatherlink.com 1.10,2013-01-14 01:45:00,
2013-01-13 19:00:00,1.7,-3.0,25.85,WNW,287,4.0,6.0,80,0.00,,,0.00,weatherlink.com 1.10,2013-01-14 02:00:00,
2013-01-13 19:15:00,1.7,-3.0,25.85,West,276,5.0,8.0,81,0.00,,,0.00,weatherlink.com 1.10,2013-01-14 02:15:00,
2013-01-13 19:30:00,2.5,-2.0,25.85,WNW,293,5.0,7.0,81,0.00,,,0.00,weatherlink.com 1.10,2013-01-14 02:30:00,
2013-01-13 19:46:00,3.0,-2.0,25.85,WNW,284,6.0,8.0,80,0.00,,,0.00,weatherlink.com 1.10,2013-01-14 02:46:00,
2013-01-13 20:01:00,2.8,-2.0,25.85,WNW,290,3.0,9.0,81,0.00,,,0.00,weatherlink.com 1.10,2013-01-14 03:01:00,
2013-01-13 20:16:00,1.8,-3.0,25.85,West,264,5.0,8.0,80,0.00,,,0.00,weatherlink.com 1.10,2013-01-14 03:16:00,
2013-01-13 20:31:00,0.5,-4.0,25.86,WNW,302,4.0,7.0,81,0.00,,,0.00,weatherlink.com 1.10,2013-01-14 03:31:00,
2013-01-13 20:46:00,0.1,-4.0,25.85,NW,307,6.0,8.0,82,0.00,,,0.00,weatherlink.com 1.10,2013-01-14 03:46:00,
2013-01-13 21:01:00,-0.1,-5.0,25.86,WNW,301,7.0,8.0,81,0.00,,,0.00,weatherlink.com 1.10,2013-01-14 04:01:00,
2013-01-13 21:16:00,-0.1,-4.0,25.86,NW,304,6.0,9.0,83,0.00,,,0.00,weatherlink.com 1.10,2013-01-14 04:16:00,
2013-01-13 21:31:00,-0.1,-5.0,25.86,WNW,287,8.0,9.0,81,0.00,,,0.00,weatherlink.com 1.10,2013-01-14 04:31:00,
2013-01-13 21:46:00,0.3,-4.0,25.87,WNW,292,6.0,9.0,82,0.00,,,0.00,weatherlink.com 1.10,2013-01-14 04:46:00,
2013-01-13 22:01:00,0.6,-4.0,25.88,WNW,287,5.0,8.0,82,0.00,,,0.00,weatherlink.com 1.10,2013-01-14 05:01:00,
2013-01-13 22:16:00,1.9,-2.0,25.88,NW,304,8.0,13.0,82,0.00,,,0.00,weatherlink.com 1.10,2013-01-14 05:16:00,
2013-01-13 22:31:00,2.4,-2.0,25.87,WNW,297,6.0,11.0,80,0.00,,,0.00,weatherlink.com 1.10,2013-01-14 05:31:00,
2013-01-13 22:46:00,1.9,-3.0,25.87,WNW,302,5.0,10.0,80,0.00,,,0.00,weatherlink.com 1.10,2013-01-14 05:46:00,
2013-01-13 23:01:00,0.3,-4.0,25.87,WNW,295,8.0,10.0,82,0.00,,,0.00,weatherlink.com 1.10,2013-01-14 06:01:00,
2013-01-13 23:17:00,-0.1,-5.0,25.87,WNW,299,4.0,8.0,81,0.00,,,0.00,weatherlink.com 1.10,2013-01-14 06:17:00,
2013-01-13 23:32:00,-0.5,-6.0,25.88,WNW,299,8.0,8.0,79,0.00,,,0.00,weatherlink.com 1.10,2013-01-14 06:32:00,
2013-01-13 23:47:00,-1.6,-7.0,25.88,WNW,303,6.0,12.0,79,0.00,,,0.00,weatherlink.com 1.10,2013-01-14 06:47:00,